Location: Caltech
(34.1382°N, 118.1253°W)
Time: 18:39:21
(UTC-07:00)

Iridium 95 - Visible Passes

Search period start: 03 July 2015 00:00
Search period end: 13 July 2015 00:00
Orbit: 776 x 779 km, 86.4° (Epoch: 03 July)

Date Brightness Start Highest point End Pass type
(mag) Time Alt. Az. Time Alt. Az. Time Alt. Az.
03 Jul 6.0 21:29:33 10° SSW 21:34:41 62° W 21:39:52 10° N visible
04 Jul 5.5 20:56:02 10° S 21:01:11 68° E 21:06:22 10° N visible
04 Jul 8.4 22:41:11 10° W 22:42:34 11° WNW 22:43:32 10° WNW visible
05 Jul 7.8 22:04:36 10° SW 22:08:37 21° WNW 22:12:28 10° NNW visible
06 Jul 6.8 21:29:57 10° SSW 21:34:51 41° W 21:39:45 10° NNW visible
07 Jul 5.7 20:56:03 10° S 21:01:16 80° W 21:06:30 10° N visible
08 Jul 8.3 22:06:02 10° WSW 22:08:57 14° WNW 22:11:34 10° NW visible
09 Jul 7.6 21:30:37 10° SW 21:35:04 27° W 21:39:26 10° NNW visible
10 Jul 6.4 20:56:18 10° SSW 21:01:23 53° W 21:06:28 10° N visible
12 Jul 8.2 21:31:39 10° WSW 21:35:21 19° WNW 21:38:51 10° NW visible
